Regional Weather Roundup
Issued by NWS

Home | Current Version | Previous Version | Text Only | Print | Product List | Glossary Off
Versions: 1 2 3 4 5 6 7 8 9 10 11 12 13 14 15 16 17 18 19 20 21 22 23 24 25 26 27 28 29 30 31 32 33 34 35 36 37 38 39 40 41 42 43 44 45 46 47 48 49 50

000
ASUS43 KLMK 261910
RWRKY
KENTUCKY REGIONAL WEATHER ROUNDUP
NATIONAL WEATHER SERVICE LOUISVILLE KY
300 PM EDT THU APR 26 2018

NOTE "FAIR" INDICATES FEW OR NO CLOUDS BELOW 12,000 FEET
WITH NO SIGNIFICANT WEATHER AND/OR OBSTRUCTIONS TO VISIBILITY.

KYZ001>023-026-027-061>063-070>075-262000-
WESTERN AND SOUTH CENTRAL KENTUCKY

CITY           SKY/WX    TMP DP  RH WIND       PRES   REMARKS
PADUCAH        PTSUNNY   62  42  47 NE9       29.90S
HENDERSON      FAIR      66  39  37 N8        29.89F
OWENSBORO      FAIR      66  40  38 NW9       29.88F
HOPKINSVILLE   PTSUNNY   57  55  94 W5        29.88S
BOWLING GREEN  PTSUNNY   63  52  67 CALM      29.86F
GLASGOW        FAIR      61  51  70 CALM      29.86F
$$

KYZ024-025-028>034-038-045-046-053-262000-
NORTH CENTRAL KENTUCKY

CITY           SKY/WX    TMP DP  RH WIND       PRES   REMARKS
LOUISVILLE/SDF CLOUDY    66  37  34 CALM      29.86F
LOUISVILLE/LOU FAIR      67  41  38 CALM      29.87F
FORT KNOX      FAIR      65  42  43 E5        29.86F
$$

KYZ035>037-039>044-047>052-055>060-089>105-262000-
NORTHEAST KENTUCKY

CITY           SKY/WX    TMP DP  RH WIND       PRES   REMARKS
LEXINGTON      FAIR      66  47  50 W7        29.87F
COVINGTON      PTSUNNY   66  32  28 W8        29.86F
FRANKFORT      FAIR      65  41  41 S5        29.86F
$$

KYZ054-064>069-076>088-106>120-262000-
SOUTHEAST KENTUCKY

CITY           SKY/WX    TMP DP  RH WIND       PRES   REMARKS
JACKSON        FAIR      62  43  49 CALM      29.87F
LONDON         PTSUNNY   60  48  64 CALM      29.87F
SOMERSET       FAIR      61  45  55 S5        29.89F
MIDDLESBORO    CLOUDY    58  48  68 S5        29.90F
MONTICELLO     NOT AVBL
$$




USA.gov is the U.S. government's official web portal to all federal, state and local government web resources and services.